星链-34939 (STARLINK-34939)

导读

STARLINK-34939是美国太空探索技术公司星链星座的组网卫星,于2025年8月14日发射升空。作为星链低轨互联网星座的组成部分,它承担着为全球提供高速卫星互联网接入服务的任务,进一步扩充了星链星座的在轨规模,助力美国完成近地轨道大规模卫星星座的部署推进。

Basic Information
目录编号:
65183
目录名称:
STARLINK-34939
国际标识:
2025-175K
轨道中心:
EARTH
卫星名称:
星链-34939
卫星全名:
星链-34939 (STARLINK-34939)
卫星状态:
在轨 (已飞行395 天)
发射日期:
2025-08-14 UTC
国别 :
美国 (US)
星等 :
--
This satellite is enrolled in the Space Conjunction Data Service (SCDS) and the current flight risk assessment level is: No High Risk
Orbit Information
数据来源 国际轨道数据
星历时间: 2026-09-12T10:57:43+0800
1天前
查看轨道信息
半长轴: 6843.704km
偏心率: 0.0002501
轨道倾角: 97.283°
近地点辐角 94.174°
升交点赤经 124.290°
平近点角 265.979°
近地点: 463.855km
远地点: 467.279km
周期: 93.907分钟
每日圈数: 15.334371
Detailed Information
固有亮度:
5
最大亮度:
2.5
卫星平台:
Starlink V1.0
覆盖范围:
全球
运营商:
太空探索技术公司
运营商所在国:
美国
制造商(研发单位):
太空探索技术公司
制造商所在国:
美国
使用方式:
暂无
Satellite Introduction
Starlink 计划是 SpaceX 推出的全球卫星互联网项目,通过发射低轨道卫星,为全球尤其是偏远地区提供高速、低延迟的互联网服务。自 2019 年起,Starlink 已部署数千颗卫星,旨在缩小全球数字鸿沟,推动互联网普及。该项目还为军事、航空等行业提供通信支持,带来广泛经济效益。
2D Orbit Map
3D Orbit Map
Orbit Altitude Analysis Chart
Orbit Inclination Analysis Chart
Orbit Comprehensive Analysis Chart
View Comprehensive Chart
Conjunction Data List
Event ID Objects TCA Miss Dist (km) Collision Risk Probability Collision Risk Index (CRI) Action
CDM_260914-182604-860206-518321
2026-09-14T
18:26:14+0000
2.666 km
极远距离
1.571316E-6 低风险 0.39
CDM_260915-040104-844106-518321
2026-09-15T
04:01:03+0000
2.811 km
极远距离
1.32483E-6 低风险 0.37
CDM_260913-111605-324906-518321
2026-09-13T
11:16:53+0000
2.561 km
极远距离
1.297431E-6 低风险 0.37
CDM_260913-164605-085106-518321
2026-09-13T
16:46:41+0000
2.695 km
极远距离
1.288268E-6 低风险 0.37
Miss Distance Evolution Trend with All Objects
Collision Probability Evolution Trend with All Objects